Regional Weather Roundup
Issued by NWS Little Rock, AR

Home | Current Version | Previous Version | Graphics & Text | Print | Product List | Glossary On
Versions: 1 2 3 4 5 6 7 8 9 10 11 12 13 14 15 16 17 18 19 20 21 22 23 24 25 26 27 28 29 30 31 32
000
ASUS44 KLZK 170105
RWRLZK

WEATHER ROUNDUP FOR ARKANSAS
NATIONAL WEATHER SERVICE LITTLE ROCK AR
700 PM CST MON JAN 16 2017

NOTE: "FAIR" INDICATES FEW OR NO CLOUDS BELOW 12,000 FEET WITH NO
SIGNIFICANT WEATHER AND/OR OBSTRUCTIONS TO VISIBILITY.

ARZ001-003-010-029-170200-
NORTHWEST ARKANSAS

CITY           SKY/WX    TMP DP  RH WIND       PRES   REMARKS
FAYETTEVILLE   CLEAR     52  45  77 W13G23    29.97R
FORT SMITH     CLEAR     55  44  66 W12       29.97R
HARRISON       CLEAR     57  49  74 S3        29.92R
BENTONVILLE    MOCLDY   N/A N/A N/A W15G21    29.98R
ROGERS         CLOUDY    50  44  80 W17G23    29.97R
SILOAM SPGS      N/A    N/A N/A N/A MISG        N/A
HIGHFILL       CLEAR     48  42  80 W14       29.98R
SPRINGDALE     CLEAR     52  43  71 W16       29.99R
$$

ARZ004-005-016-170200-
NORTH CENTRAL ARKANSAS

CITY           SKY/WX    TMP DP  RH WIND       PRES   REMARKS
BATESVILLE     CLOUDY    63  61  94 S6        29.94S
FLIPPIN        CLOUDY    54  50  87 SW5       29.89R VSB 1/4
MTN HOME       FOG       56  56 100 SW6       29.90R VSB 3/4
$$

ARZ040-041-170200-
WEST CENTRAL ARKANSAS

CITY           SKY/WX    TMP DP  RH WIND       PRES   REMARKS
MENA           CLEAR     59  48  67 SW6       29.99R
MOUNT IDA      CLEAR     60  54  80 CALM      29.95R
$$

ARZ009-017-025-026-028-170200-
NORTHEAST ARKANSAS

CITY           SKY/WX    TMP DP  RH WIND       PRES   REMARKS
CORNING        CLOUDY    64  64 100 S21G26    29.94F
JONESBORO      HVY RAIN  63  62  97 W8G17     29.96S FOG
NEWPORT        LGT RAIN  63  61  94 S10G21    29.95R FOG
WALNUT RIDGE   CLOUDY    63  59  88 S18       29.94S
BLYTHEVILLE    RAIN      64  61  90 S17       30.00R
$$

ARZ022-023-033-042-044-170200-
CENTRAL ARKANSAS

CITY           SKY/WX    TMP DP  RH WIND       PRES   REMARKS
LITTLE ROCK    RAIN      64  64 100 SW7       29.96R FOG
N LITTLE ROCK    N/A     63  62  97 SW5       29.97S
JACKSONVILLE   PTCLDY    65  65 100 SW7       29.95R
SEARCY         RAIN      64  64 100 SW8       29.96R
HOT SPRINGS    PTCLDY    61  60  97 W5        29.98R
RUSSELLVILLE   CLEAR     58  57  97 W3        29.94R
CLINTON        MOCLDY    61  61 100 CALM      29.93R
$$

ARZ036-170200-
EAST ARKANSAS

CITY           SKY/WX    TMP DP  RH WIND       PRES   REMARKS
WEST MEMPHIS   CLOUDY    64  62  93 S21       29.96F
$$

ARZ050-053-066-070-073-170200-
SOUTHWEST ARKANSAS

CITY           SKY/WX    TMP DP  RH WIND       PRES   REMARKS
ARKADELPHIA    CLOUDY    62  58  86 SW7       29.99R
CAMDEN         HVY RAIN  66  63  88 SW7       29.99R
TEXARKANA      LGT RAIN  61  61 100 S7        30.00R
EL DORADO      LGT RAIN  67  65  93 SE7       29.99F
DE QUEEN       CLEAR     55  50  83 SW3       29.98R
$$

ARZ056-057-069-170200-
SOUTHEAST ARKANSAS

CITY           SKY/WX    TMP DP  RH WIND       PRES   REMARKS
PINE BLUFF     CLOUDY    67  64  90 S13       29.97R
STUTTGART      CLOUDY    66  61  82 S17       29.96S
MONTICELLO     CLOUDY    69  64  84 SW8       30.00R

$$






USA.gov is the U.S. government's official web portal to all federal, state and local government web resources and services.